FW5697 Weather Reports


Display with metric or nautical units.
time (UTC)temp
F
wind
direction
speed
MPH
gust
MPH
rain 1hr
in
rain 24hr
in
rain mn
in
humidity
%
barometer
mb
20260902091531 72 0 0.0 0.0 0.00 0.00 0.00 96 1018.1
20260902090032 72 0 0.0 0.0 0.00 0.00 0.00 96 1018.1
20260902084533 72 0 0.0 0.0 0.00 0.00 0.00 96 1017.9
20260902083031 72 0 0.0 0.0 0.00 0.00 0.00 96 1017.8
20260902081535 73 0 0.0 1.0 0.00 0.00 0.00 96 1017.8
20260902080034 73 0 0.0 0.0 0.00 0.00 0.00 95 1017.7
20260902074534 73 0 0.0 0.0 0.00 0.00 0.00 95 1017.7
20260902073045 73 0 0.0 0.0 0.00 0.00 0.00 95 1017.8
20260902071532 73 0 0.0 0.0 0.00 0.00 0.00 95 1017.9
20260902070036 74 0 0.0 0.0 0.00 0.00 0.00 95 1018.0
20260902064538 74 0 0.0 0.0 0.00 0.00 0.00 95 1017.8
20260902063032 74 0 0.0 0.0 0.00 0.00 0.00 95 1017.8
20260902061534 74 0 0.0 1.0 0.00 0.00 0.00 95 1018.0
20260902060034 74 0 0.0 0.0 0.00 0.00 0.00 94 1018.2
20260902054531 74 0 0.0 0.0 0.00 0.00 0.00 94 1018.1
20260902053042 75 0 0.0 0.0 0.00 0.00 0.00 94 1018.2
20260902051535 75 0 0.0 0.0 0.00 0.00 0.00 94 1018.1
20260902050031 75 0 0.0 0.0 0.00 0.00 0.00 93 1018.1
20260902044534 75 0 0.0 0.0 0.00 0.00 0.00 93 1018.1
20260902043035 75 0 0.0 0.0 0.00 0.00 0.00 93 1018.1
20260902041536 76 0 0.0 0.0 0.00 0.00 0.00 93 1018.0
20260902040035 76 0 0.0 0.0 0.00 0.00 0.00 92 1018.0
20260902034534 76 0 0.0 0.0 0.00 0.00 0.00 92 1018.1
20260902033036 76 0 0.0 0.0 0.00 0.00 0.00 92 1018.0
20260902031534 77 0 0.0 0.0 0.00 0.00 0.00 91 1018.0
20260902030034 77 0 0.0 1.0 0.00 0.00 0.00 91 1018.1
20260902024534 77 0 0.0 0.0 0.00 0.00 0.00 90 1018.0
20260902023042 78 0 0.0 0.0 0.00 0.00 0.00 90 1018.0
20260902021533 78 0 0.0 0.0 0.00 0.00 0.00 89 1017.8
20260902020033 79 0 0.0 0.0 0.00 0.00 0.00 89 1017.9
20260902014541 79 0 0.0 0.0 0.00 0.00 0.00 87 1017.8
20260902013034 80 0 0.0 0.0 0.00 0.00 0.00 87 1017.7
20260902011542 80 0 0.0 0.0 0.00 0.00 0.00 85 1017.5
20260902010032 81 0 0.0 0.0 0.00 0.00 0.00 83 1017.3
20260902004534 82 0 0.0 0.0 0.00 0.00 0.00 80 1017.3
20260902003038 83 0 0.0 0.0 0.00 0.00 0.00 79 1017.2
20260902001533 83 0 0.0 0.0 0.00 0.00 0.00 76 1017.2
20260902000040 85 0 0.0 0.0 0.00 0.00 0.00 74 1017.2
20260901234534 86 0 0.0 0.0 0.00 0.00 0.00 70 1017.3
20260901233036 87 0 0.0 0.0 0.00 0.00 0.00 67 1017.3
20260901231535 88 0 0.0 0.0 0.00 0.00 0.00 66 1017.4
20260901230032 89 0 0.0 0.0 0.00 0.00 0.00 65 1017.3
20260901224534 89 0 0.0 0.0 0.00 0.00 0.00 63 1017.2
20260901223032 89 0 0.0 1.0 0.00 0.00 0.00 63 1017.2
20260901221538 91 101 0.0 1.0 0.00 0.00 0.00 64 1017.2
20260901220039 92 0 0.0 0.0 0.00 0.00 0.00 59 1017.2
20260901214547 94 0 0.0 3.0 0.00 0.00 0.00 52 1017.2
20260901213034 95 15 0.0 2.0 0.00 0.00 0.00 54 1017.2
20260901211534 95 239 0.0 3.0 0.00 0.00 0.00 52 1017.3
20260901210033 93 313 0.0 2.0 0.00 0.00 0.00 50 1017.3
20260901204537 91 0 0.0 1.0 0.00 0.00 0.00 62 1017.4
20260901203034 91 0 0.0 1.0 0.00 0.00 0.00 62 1017.5
20260901201535 92 0 0.0 2.0 0.00 0.00 0.00 53 1017.5
20260901200034 93 0 0.0 2.0 0.00 0.00 0.00 56 1017.6
20260901194537 93 55 0.0 2.0 0.00 0.00 0.00 54 1017.8
20260901193035 94 105 0.0 2.0 0.00 0.00 0.00 52 1017.9
20260901191547 94 0 0.0 2.0 0.00 0.00 0.00 55 1018.1
20260901190043 93 0 0.0 3.0 0.00 0.00 0.00 49 1018.3
20260901184534 91 0 0.0 2.0 0.00 0.00 0.00 57 1018.5
20260901183055 91 38 1.0 5.0 0.00 0.00 0.00 55 1018.7
20260901181537 92 39 0.0 3.0 0.00 0.00 0.00 58 1018.8
20260901180038 90 24 1.0 4.0 0.00 0.00 0.00 60 1019.0
20260901174533 91 172 1.0 5.0 0.00 0.00 0.00 56 1019.0
20260901173039 90 21 0.0 6.0 0.00 0.00 0.00 62 1019.2
20260901171534 90 64 1.0 5.0 0.00 0.00 0.00 58 1019.5
20260901170036 88 0 0.0 5.0 0.00 0.00 0.00 59 1019.7
20260901164532 87 0 0.0 3.0 0.00 0.00 0.00 64 1019.8
20260901163032 87 24 1.0 5.0 0.00 0.00 0.00 65 1020.0
20260901161535 87 11 0.0 3.0 0.00 0.00 0.00 66 1020.2
20260901160036 88 0 1.0 2.0 0.00 0.00 0.00 67 1020.3
20260901154557 86 0 0.0 3.0 0.00 0.00 0.00 69 1020.4
20260901153043 85 0 0.0 4.0 0.00 0.00 0.00 73 1020.5
20260901151534 84 0 1.0 3.0 0.00 0.00 0.00 75 1020.4
20260901150033 83 234 0.0 2.0 0.00 0.00 0.00 77 1020.4
20260901144537 82 0 0.0 2.0 0.00 0.00 0.00 80 1020.4
20260901143036 81 210 0.0 2.0 0.00 0.00 0.00 83 1020.5
20260901141534 80 51 1.0 3.0 0.00 0.00 0.00 85 1020.6
20260901140034 79 0 0.0 2.0 0.00 0.00 0.00 88 1020.6
20260901134535 77 0 0.0 2.0 0.00 0.00 0.00 92 1020.6
20260901133034 75 0 0.0 2.0 0.00 0.00 0.00 95 1020.5
20260901131536 74 0 0.0 1.0 0.00 0.00 0.00 97 1020.4
20260901130035 73 0 0.0 0.0 0.00 0.00 0.00 98 1020.4
20260901124541 72 0 0.0 0.0 0.00 0.00 0.00 98 1020.4
20260901123037 71 0 0.0 0.0 0.00 0.00 0.00 98 1020.4
20260901121535 70 0 0.0 0.0 0.00 0.00 0.00 97 1020.3
20260901120035 70 0 0.0 0.0 0.00 0.00 0.00 97 1020.1
20260901114534 70 0 0.0 0.0 0.00 0.00 0.00 96 1019.9
20260901113046 70 0 0.0 0.0 0.00 0.00 0.00 96 1019.7
20260901111536 70 0 0.0 0.0 0.00 0.00 0.00 96 1019.4
20260901110039 70 0 0.0 0.0 0.00 0.00 0.00 96 1019.2
20260901104531 70 0 0.0 0.0 0.00 0.00 0.00 96 1019.1
20260901103045 70 0 0.0 0.0 0.00 0.00 0.00 96 1019.1
20260901101535 70 0 0.0 0.0 0.00 0.00 0.00 96 1018.9
20260901100036 70 0 0.0 0.0 0.00 0.00 0.00 96 1018.8
20260901094537 70 0 0.0 0.0 0.00 0.00 0.00 96 1018.7
20260901093039 71 0 0.0 0.0 0.00 0.00 0.00 96 1018.6